This is the latest recevied weather packets stored in our database for station/object WA6ODQ-13. If no packets are shown the sender has not sent any weather packets the latest 10 day(s).
| Time | Temp. | Humidity | Pressure | Rain* | Wind** | Luminosity | Snow |
|---|---|---|---|---|---|---|---|
| 1777961450 | 11.11° C | 99% | 1013.5 hPa | 1.27 mm | - | 0 W/m² | - |
| 1777961147 | 11.11° C | 99% | 1013.3 hPa | 0 mm | - | 0 W/m² | - |
| 1777960843 | 11.11° C | 99% | 1013 hPa | 0 mm | - | 0 W/m² | - |
| 1777960539 | 11.11° C | 99% | 1013.2 hPa | 0 mm | - | 0 W/m² | - |
| 1777960236 | 11.11° C | 99% | 1013.1 hPa | 0 mm | - | 0 W/m² | - |
| 1777959933 | 11.11° C | 99% | 1012.7 hPa | 0 mm | - | 0 W/m² | - |
| 1777959631 | 11.11° C | 99% | 1012.7 hPa | 1.78 mm | - | 0 W/m² | - |
| 1777959328 | 11.11° C | 99% | 1012.9 hPa | 1.78 mm | - | 0 W/m² | - |
| 1777959025 | 11.67° C | 99% | 1013.1 hPa | 1.27 mm | - | 0 W/m² | - |
| 1777958722 | 11.67° C | 99% | 1013.2 hPa | 4.32 mm | - | 0 W/m² | - |
| 1777958419 | 11.67° C | 99% | 1013 hPa | 4.83 mm | - | 0 W/m² | - |
| 1777958116 | 11.67° C | 99% | 1013.3 hPa | 3.05 mm | - | 0 W/m² | - |
| 1777957814 | 11.67° C | 99% | 1013.2 hPa | 3.05 mm | - | 0 W/m² | - |
| 1777957512 | 12.22° C | 99% | 1013.3 hPa | 1.78 mm | - | 0 W/m² | - |
| 1777957210 | 12.22° C | 99% | 1013.6 hPa | 1.27 mm | - | 0 W/m² | - |
| 1777956905 | 12.22° C | 99% | 1013.3 hPa | 3.05 mm | - | 0 W/m² | - |
| 1777956603 | 12.22° C | 99% | 1013.1 hPa | 1.78 mm | - | 0 W/m² | - |
| 1777956300 | 12.22° C | 99% | 1013.1 hPa | 3.05 mm | - | 0 W/m² | - |
| 1777955996 | 12.22° C | 99% | 1013.1 hPa | 1.27 mm | - | 0 W/m² | - |
| 1777955692 | 12.22° C | 99% | 1013.1 hPa | 1.78 mm | - | 0 W/m² | - |
| 1777955389 | 12.22° C | 99% | 1013.2 hPa | 3.56 mm | - | 0 W/m² | - |
| 1777955085 | 12.22° C | 99% | 1013.4 hPa | 3.05 mm | - | 0 W/m² | - |
| 1777954783 | 12.22° C | 99% | 1013.5 hPa | 1.27 mm | - | 0 W/m² | - |
| 1777954479 | 12.22° C | 99% | 1013.5 hPa | 0 mm | - | 0 W/m² | - |
| 1777954177 | 12.22° C | 99% | 1013.5 hPa | 0 mm | - | 0 W/m² | - |
* Rain latest hour (hover to see other rain measurements)
** Current wind speed in m/s (hover to see current wind gust speed)